Weather History for KLEX - January, 2012

Change the Weather History Date:

Monday, January 9, 2012

  Actual Average Record
Temperature  
Mean Temperature 42 °F 33 °F  
Max Temperature 50 °F 41 °F 70 °F (1930)
Min Temperature 33 °F 25 °F -8 °F (1875)
Degree Days  
Heating Degree Days 23 32  
Month to date heating degree days 252 288  
Since 1 July heating degree days 1849 2076  
Cooling Degree Days 0 0  
Month to date cooling degree days 0 0  
Year to date cooling degree days 0 0  
Moisture  
Dew Point 29 °F    
Average Humidity 66    
Maximum Humidity 82    
Minimum Humidity 49    
Precipitation  
Precipitation T in 0.10 in 1.53 in (1937)
Month to date precipitation T 0.94  
Year to date precipitation T 0.94  
Snow  
Snow T in 0.10 in 3.00 in (1977)
Month to date snowfall T 1.0  
Since 1 July snowfall T 3.8  
Snow Depth 0.00 in    
Sea Level Pressure  
Sea Level Pressure 30.16 in    
Wind  
Wind Speed 6 mph (NNE)    
Max Wind Speed 10 mph    
Max Gust Speed 13 mph    
Visibility 10 miles    
Events      
T = Trace of Precipitation, MM = Missing Value Source: NWS Daily Summary

Daily Weather History Graph

Daily Weather History Graph

Search for Another Location

Airport or City:

Trip Planner

Search our weather history database for the weather conditions in past years. The results will help you decide how hot, cold, wet, or windy it might be!

Date:

Astronomy

Jan. 09, 2012 Rise Set
Actual Time 7:54 AM EST 5:36 PM EST
Civil Twilight 7:25 AM EST 6:05 PM EST
Nautical Twilight 6:52 AM EST 6:38 PM EST
Astronomical Twilight 6:21 AM EST 7:09 PM EST
Moon 6:20 PM EST (1/9) 7:55 AM EST (1/9)
Length of Visible Light 10h 39m
Length of Day
9h 41m
Full, 100% of the Moon is Illuminated
Jan 9
Full
Jan 16
Last Quarter
Jan 23
New
Jan 30
First Quarter
Feb 7
Full

Hourly Weather History & Observations

Time (EST) Temp. Windchill Dew Point Humidity Pressure Visibility Wind Dir Wind Speed Gust Speed Precip Events Conditions
12:54 AM 37.9 °F 32.1 °F 25.0 °F 60% 30.22 in 10.0 mi ENE 8.1 mph - N/A   Overcast
1:54 AM 37.9 °F 32.1 °F 25.0 °F 60% 30.22 in 10.0 mi NE 8.1 mph - N/A   Overcast
2:54 AM 36.0 °F 29.6 °F 28.0 °F 73% 30.22 in 10.0 mi ENE 8.1 mph - 0.00 in   Overcast
3:54 AM 36.0 °F 30.3 °F 28.9 °F 76% 30.22 in 10.0 mi NE 6.9 mph - 0.00 in   Overcast
4:54 AM 35.1 °F 29.3 °F 28.0 °F 76% 30.20 in 10.0 mi NE 6.9 mph - N/A   Overcast
5:54 AM 36.0 °F 29.6 °F 28.9 °F 76% 30.20 in 10.0 mi NE 8.1 mph - N/A   Overcast
6:54 AM 37.0 °F 31.6 °F 28.0 °F 70% 30.19 in 10.0 mi ESE 6.9 mph - N/A   Overcast
7:54 AM 37.0 °F 32.4 °F 28.0 °F 70% 30.17 in 10.0 mi SE 5.8 mph - N/A   Overcast
8:54 AM 37.9 °F 35.5 °F 30.0 °F 73% 30.16 in 10.0 mi ESE 3.5 mph - N/A   Overcast
9:54 AM 39.0 °F 36.8 °F 30.9 °F 73% 30.20 in 10.0 mi North 3.5 mph - N/A   Overcast
10:54 AM 39.2 °F 35.9 °F 30.2 °F 70% 30.18 in 10.0 mi NE 4.6 mph - N/A   Overcast
11:54 AM 42.1 °F - 30.9 °F 65% 30.17 in 10.0 mi Calm Calm - N/A   Overcast
12:54 PM 46.9 °F - 32.0 °F 56% 30.12 in 10.0 mi Variable 3.5 mph - N/A   Mostly Cloudy
1:54 PM 46.9 °F - 32.0 °F 56% 30.12 in 10.0 mi NNW 4.6 mph - N/A   Overcast
2:54 PM 48.2 °F - 32.0 °F 54% 30.10 in 10.0 mi West 5.8 mph - N/A   Clear
3:54 PM 48.9 °F - 30.0 °F 48% 30.10 in 10.0 mi West 5.8 mph - N/A   Clear
4:54 PM 46.0 °F 43.9 °F 28.9 °F 51% 30.11 in 10.0 mi WSW 4.6 mph - N/A   Clear
5:54 PM 44.1 °F 42.5 °F 28.9 °F 55% 30.11 in 10.0 mi SSW 3.5 mph - N/A   Clear
6:54 PM 39.0 °F 32.8 °F 30.9 °F 73% 30.11 in 10.0 mi SSW 9.2 mph - N/A   Clear
7:54 PM 37.9 °F 32.1 °F 30.0 °F 73% 30.12 in 10.0 mi SW 8.1 mph - N/A   Clear
8:54 PM 39.0 °F 36.8 °F 30.9 °F 73% 30.11 in 10.0 mi SSW 3.5 mph - N/A   Clear
9:54 PM 36.0 °F 32.1 °F 30.0 °F 79% 30.13 in 10.0 mi WSW 4.6 mph - N/A   Clear
10:54 PM 37.0 °F 33.3 °F 28.9 °F 73% 30.14 in 10.0 mi West 4.6 mph - N/A   Clear
11:54 PM 35.1 °F 32.2 °F 28.0 °F 76% 30.13 in 10.0 mi SW 3.5 mph - N/A   Clear